TimeEDT,TemperatureF,Dew PointF,Humidity,Sea Level PressureIn,VisibilityMPH,Wind Direction,Wind SpeedMPH,Gust SpeedMPH,PrecipitationIn,Events,Conditions,WindDirDegrees,DateUTC
12:53 AM,57.9,50.0,75,30.08,10.0,SW,13.8,20.7,N/A,,Overcast,220,2013-04-17 04:53:00
1:53 AM,59.0,51.1,75,30.07,10.0,West,9.2,-,N/A,,Overcast,260,2013-04-17 05:53:00
2:53 AM,59.0,51.1,75,30.08,10.0,West,11.5,-,N/A,,Overcast,260,2013-04-17 06:53:00
3:53 AM,57.9,52.0,81,30.09,10.0,WSW,6.9,-,N/A,,Overcast,240,2013-04-17 07:53:00
4:11 AM,57.2,53.6,88,30.08,10.0,West,6.9,-,N/A,,Overcast,260,2013-04-17 08:11:00
4:53 AM,57.0,51.1,81,30.09,10.0,West,9.2,-,N/A,,Overcast,280,2013-04-17 08:53:00
5:53 AM,55.9,43.0,62,30.11,10.0,WNW,5.8,-,N/A,,Overcast,290,2013-04-17 09:53:00
6:53 AM,55.0,42.1,62,30.13,10.0,NW,6.9,-,N/A,,Mostly Cloudy,320,2013-04-17 10:53:00
7:53 AM,55.9,39.0,53,30.16,10.0,NNW,15.0,21.9,N/A,,Clear,330,2013-04-17 11:53:00
8:53 AM,57.0,37.9,49,30.17,10.0,North,12.7,20.7,N/A,,Clear,350,2013-04-17 12:53:00
10:53 AM,61.0,37.0,41,30.18,10.0,NNW,9.2,17.3,N/A,,Clear,330,2013-04-17 14:53:00
11:53 AM,62.1,35.1,37,30.18,10.0,Variable,5.8,-,N/A,,Clear,0,2013-04-17 15:53:00
12:53 PM,63.0,33.1,33,30.17,10.0,Calm,Calm,-,N/A,,Clear,0,2013-04-17 16:53:00
1:53 PM,64.9,30.9,28,30.17,10.0,NW,8.1,17.3,N/A,,Clear,320,2013-04-17 17:53:00
2:53 PM,66.9,30.0,25,30.17,10.0,Variable,5.8,-,N/A,,Clear,0,2013-04-17 18:53:00
3:53 PM,68.0,30.0,24,30.17,10.0,WNW,10.4,17.3,N/A,,Clear,300,2013-04-17 19:53:00
4:53 PM,66.9,28.9,24,30.18,10.0,WSW,6.9,-,N/A,,Clear,250,2013-04-17 20:53:00
5:53 PM,66.9,28.0,23,30.20,10.0,NNW,9.2,-,N/A,,Clear,330,2013-04-17 21:53:00
6:53 PM,64.0,27.0,25,30.23,10.0,North,9.2,-,N/A,,Clear,10,2013-04-17 22:53:00
7:53 PM,61.0,27.0,27,30.26,10.0,North,4.6,-,N/A,,Clear,360,2013-04-17 23:53:00
8:53 PM,53.1,33.1,47,30.30,10.0,South,6.9,-,N/A,,Clear,180,2013-04-18 00:53:00
9:53 PM,50.0,41.0,71,30.31,10.0,NNE,3.5,-,N/A,,Clear,20,2013-04-18 01:53:00
10:53 PM,45.0,39.9,82,30.33,10.0,Calm,Calm,-,N/A,,Clear,0,2013-04-18 02:53:00
11:53 PM,42.1,39.0,89,30.33,10.0,Calm,Calm,-,N/A,,Clear,0,2013-04-18 03:53:00